Simultaneous Nadir Overpasses (SNOs) Predictions

Prediction of SNOs between GOES-17 and FY3D Satellite Orbit:

Table of predicted SNOs for the next 14.0 days since TLE Epoch: 6/5/2022
Index Date Time (GOES-17) GOES-17 Lat,Lon FY3D Lat,Lon Distance(km) Time Diff (sec)
1 06/06/2022 11:03:18 0.01,-137.20 0.26,-138.19 113.22 80
2 06/07/2022 10:42:15 0.01,-137.20 -0.80,-133.74 394.64 80
3 06/08/2022 23:07:21 -0.02,-137.19 -0.43,-139.15 222.54 80
4 06/09/2022 22:46:17 -0.01,-137.19 0.57,-134.69 284.93 80
5 06/11/2022 11:11:16 0.01,-137.18 0.64,-140.07 329.01 80
6 06/12/2022 10:50:12 0.01,-137.17 -0.36,-135.62 177.80 80
7 06/13/2022 23:15:18 -0.01,-137.15 -0.85,-141.03 441.32 80
8 06/14/2022 22:54:13 -0.00,-137.13 0.15,-136.57 64.87 80
9 06/17/2022 11:00:47 -0.00,-137.09 0.11,-137.48 45.20 80
10 06/18/2022 10:39:43 -0.01,-137.07 -0.90,-133.03 460.76 80
